User: anonymous   Login
Location: Arbon
(43.0005°N, 0.7472°E)
Time: 23:07:16
(UTC+00:00)
Language:

A-11 Canister half - Orbit

View from above orbital plane
View from above orbital plane
View from above satellite
View from above satellite

Ground track
Ground track

The orbit data is extracted from the following two-line orbital elements,

1 00053U 60009E   21210.37947503 -.00000010  00000-0  72801-3 0  9990
2 00053  47.2773  84.0848 0097054 203.6606 155.9701 12.17256331718139
Epoch (UTC): 29 July 2021 09:06:26
Eccentricity: 0.0097054
inclination: 47.2773°
perigee height: 1527 km
apogee height: 1682 km
right ascension of ascending node: 84.0848°
argument of perigee: 203.6606°
revolutions per day: 12.17256331
mean anomaly at epoch: 155.9701°
orbit number at epoch: 71813

The dashed part of the orbit path shows where the satellite is in the earth's shadow,  

DLR